Time,TemperatureF,DewpointF,PressureIn,WindDirection,WindDirectionDegrees,WindSpeedMPH,WindSpeedGustMPH,Humidity,HourlyPrecipIn,Conditions,Clouds,dailyrainin,SoftwareType,DateUTC
2013-03-11 00:07:00,32.8,16.0,30.12,WNW,285,0.0,-999.0,50,-99.99,,,0.00,weatherlink.com 1.10,2013-03-11 06:07:00,
2013-03-11 00:22:00,32.4,16.0,30.14,WNW,285,0.0,-999.0,50,-99.99,,,0.00,weatherlink.com 1.10,2013-03-11 06:22:00,
2013-03-11 00:37:00,32.7,15.0,30.14,WNW,285,0.0,-999.0,49,-99.99,,,0.00,weatherlink.com 1.10,2013-03-11 06:37:00,
2013-03-11 00:52:00,32.2,15.0,30.15,WNW,285,0.0,-999.0,50,-99.99,,,0.00,weatherlink.com 1.10,2013-03-11 06:52:00,
2013-03-11 01:07:00,31.8,15.0,30.16,WNW,285,0.0,-999.0,51,-99.99,,,0.00,weatherlink.com 1.10,2013-03-11 07:07:00,
2013-03-11 01:22:00,31.3,15.0,30.14,WNW,285,0.0,-999.0,52,-99.99,,,0.00,weatherlink.com 1.10,2013-03-11 07:22:00,
2013-03-11 01:37:00,30.9,17.0,30.15,WNW,285,0.0,-999.0,56,-99.99,,,0.00,weatherlink.com 1.10,2013-03-11 07:37:00,
2013-03-11 01:52:00,30.7,17.0,30.15,WNW,285,0.0,-999.0,57,-99.99,,,0.00,weatherlink.com 1.10,2013-03-11 07:52:00,
2013-03-11 02:07:00,30.1,16.0,30.16,WNW,285,0.0,-999.0,57,-99.99,,,0.00,weatherlink.com 1.10,2013-03-11 08:07:00,
2013-03-11 02:22:00,30.6,16.0,30.14,WNW,285,0.0,-999.0,54,-99.99,,,0.00,weatherlink.com 1.10,2013-03-11 08:22:00,
2013-03-11 02:37:00,30.6,16.0,30.14,WNW,285,0.0,-999.0,54,-99.99,,,0.00,weatherlink.com 1.10,2013-03-11 08:37:00,
2013-03-11 02:52:00,29.8,15.0,30.14,WNW,285,0.0,-999.0,55,-99.99,,,0.00,weatherlink.com 1.10,2013-03-11 08:52:00,
2013-03-11 03:07:00,29.3,16.0,30.13,WNW,285,0.0,-999.0,57,-99.99,,,0.00,weatherlink.com 1.10,2013-03-11 09:07:00,
2013-03-11 03:23:00,28.7,15.0,30.12,WNW,285,0.0,-999.0,57,-99.99,,,0.00,weatherlink.com 1.10,2013-03-11 09:23:00,
2013-03-11 03:38:00,27.9,15.0,30.12,WNW,285,0.0,-999.0,59,-99.99,,,0.00,weatherlink.com 1.10,2013-03-11 09:38:00,
2013-03-11 03:53:00,27.5,15.0,30.12,WNW,285,0.0,-999.0,60,-99.99,,,0.00,weatherlink.com 1.10,2013-03-11 09:53:00,
2013-03-11 04:08:00,27.3,15.0,30.11,WNW,285,0.0,-999.0,61,-99.99,,,0.00,weatherlink.com 1.10,2013-03-11 10:08:00,
2013-03-11 04:23:00,27.3,15.0,30.11,WNW,285,0.0,-999.0,60,-99.99,,,0.00,weatherlink.com 1.10,2013-03-11 10:23:00,
2013-03-11 04:38:00,27.0,15.0,30.10,WNW,285,0.0,-999.0,61,-99.99,,,0.00,weatherlink.com 1.10,2013-03-11 10:38:00,
2013-03-11 04:53:00,26.7,15.0,30.11,WNW,285,0.0,-999.0,62,-99.99,,,0.00,weatherlink.com 1.10,2013-03-11 10:53:00,
2013-03-11 05:08:00,26.4,15.0,30.11,WNW,285,0.0,-999.0,62,-99.99,,,0.00,weatherlink.com 1.10,2013-03-11 11:08:00,
2013-03-11 05:23:00,26.1,15.0,30.12,WNW,285,0.0,-999.0,63,-99.99,,,0.00,weatherlink.com 1.10,2013-03-11 11:23:00,
2013-03-11 05:38:00,26.0,15.0,30.12,WNW,285,0.0,-999.0,64,-99.99,,,0.00,weatherlink.com 1.10,2013-03-11 11:38:00,
2013-03-11 05:53:00,25.6,15.0,30.13,WNW,285,0.0,-999.0,64,-99.99,,,0.00,weatherlink.com 1.10,2013-03-11 11:53:00,
2013-03-11 06:08:00,25.4,15.0,30.13,WNW,285,0.0,-999.0,65,-99.99,,,0.00,weatherlink.com 1.10,2013-03-11 12:08:00,
2013-03-11 06:23:00,25.3,15.0,30.14,WNW,285,0.0,-999.0,64,-99.99,,,0.00,weatherlink.com 1.10,2013-03-11 12:23:00,
2013-03-11 06:38:00,25.4,15.0,30.14,WNW,285,0.0,-999.0,65,-99.99,,,0.00,weatherlink.com 1.10,2013-03-11 12:38:00,
2013-03-11 06:53:00,25.3,15.0,30.14,WNW,285,0.0,-999.0,64,-99.99,,,0.00,weatherlink.com 1.10,2013-03-11 12:53:00,
2013-03-11 07:08:00,25.3,15.0,30.14,WNW,285,0.0,-999.0,65,-99.99,,,0.00,weatherlink.com 1.10,2013-03-11 13:08:00,
2013-03-11 07:23:00,25.1,14.0,30.16,WNW,285,0.0,-999.0,64,-99.99,,,0.00,weatherlink.com 1.10,2013-03-11 13:23:00,
2013-03-11 07:38:00,25.1,14.0,30.16,WNW,285,0.0,-999.0,64,-99.99,,,0.00,weatherlink.com 1.10,2013-03-11 13:38:00,
2013-03-11 07:53:00,25.3,15.0,30.17,WNW,285,0.0,-999.0,64,-99.99,,,0.00,weatherlink.com 1.10,2013-03-11 13:53:00,
2013-03-11 08:08:00,26.0,16.0,30.17,WNW,285,0.0,-999.0,65,-99.99,,,0.00,weatherlink.com 1.10,2013-03-11 14:08:00,
2013-03-11 08:23:00,26.9,16.0,30.19,WNW,285,0.0,-999.0,64,-99.99,,,0.00,weatherlink.com 1.10,2013-03-11 14:23:00,
2013-03-11 08:38:00,28.1,16.0,30.19,WNW,285,0.0,-999.0,62,-99.99,,,0.00,weatherlink.com 1.10,2013-03-11 14:38:00,
2013-03-11 08:53:00,30.0,18.0,30.18,WNW,285,0.0,-999.0,61,-99.99,,,0.00,weatherlink.com 1.10,2013-03-11 14:53:00,
2013-03-11 09:08:00,34.1,18.0,30.17,WNW,285,0.0,-999.0,53,-99.99,,,0.00,weatherlink.com 1.10,2013-03-11 15:08:00,
2013-03-11 09:23:00,38.6,18.0,30.17,WNW,284,0.0,-999.0,44,-99.99,,,0.00,weatherlink.com 1.10,2013-03-11 15:23:00,
2013-03-11 09:38:00,42.2,18.0,30.15,WNW,284,0.0,-999.0,38,-99.99,,,0.00,weatherlink.com 1.10,2013-03-11 15:38:00,
2013-03-11 09:53:00,44.6,18.0,30.14,WNW,282,2.0,-999.0,34,-99.99,,,0.00,weatherlink.com 1.10,2013-03-11 15:53:00,
2013-03-11 10:08:00,46.5,16.0,30.13,West,278,2.0,-999.0,30,-99.99,,,0.00,weatherlink.com 1.10,2013-03-11 16:08:00,
2013-03-11 10:23:00,47.6,16.0,30.14,NNW,346,0.0,-999.0,28,-99.99,,,0.00,weatherlink.com 1.10,2013-03-11 16:23:00,
2013-03-11 10:38:00,48.0,16.0,30.14,West,277,1.0,-999.0,28,-99.99,,,0.00,weatherlink.com 1.10,2013-03-11 16:38:00,
2013-03-11 10:53:00,49.4,17.0,30.13,South,186,2.0,-999.0,27,-99.99,,,0.00,weatherlink.com 1.10,2013-03-11 16:53:00,
2013-03-11 11:08:00,50.1,17.0,30.12,South,191,1.0,-999.0,27,-99.99,,,0.00,weatherlink.com 1.10,2013-03-11 17:08:00,
2013-03-11 11:23:00,51.0,17.0,30.14,SSW,205,1.0,-999.0,26,-99.99,,,0.00,weatherlink.com 1.10,2013-03-11 17:23:00,
2013-03-11 11:38:00,52.3,16.0,30.12,SE,137,0.0,-999.0,24,-99.99,,,0.00,weatherlink.com 1.10,2013-03-11 17:38:00,
2013-03-11 11:53:00,52.9,17.0,30.12,ESE,123,0.0,-999.0,24,-99.99,,,0.00,weatherlink.com 1.10,2013-03-11 17:53:00,
2013-03-11 12:08:00,53.5,16.0,30.09,South,181,0.0,-999.0,23,-99.99,,,0.00,weatherlink.com 1.10,2013-03-11 18:08:00,
2013-03-11 12:24:00,55.0,18.0,30.08,NNE,25,3.0,-999.0,23,-99.99,,,0.00,weatherlink.com 1.10,2013-03-11 18:24:00,
2013-03-11 12:39:00,55.9,17.0,30.07,SSW,208,0.0,-999.0,22,-99.99,,,0.00,weatherlink.com 1.10,2013-03-11 18:39:00,
2013-03-11 12:54:00,56.5,17.0,30.05,SE,144,0.0,-999.0,21,-99.99,,,0.00,weatherlink.com 1.10,2013-03-11 18:54:00,
2013-03-11 13:09:00,57.5,17.0,30.05,SW,216,0.0,-999.0,20,-99.99,,,0.00,weatherlink.com 1.10,2013-03-11 19:09:00,
2013-03-11 13:24:00,59.0,17.0,30.04,ESE,112,3.0,-999.0,19,-99.99,,,0.00,weatherlink.com 1.10,2013-03-11 19:24:00,
2013-03-11 13:39:00,59.9,17.0,30.03,WSW,237,1.0,-999.0,19,-99.99,,,0.00,weatherlink.com 1.10,2013-03-11 19:39:00,
2013-03-11 13:54:00,61.0,16.0,30.00,SE,130,2.0,-999.0,17,-99.99,,,0.00,weatherlink.com 1.10,2013-03-11 19:54:00,
2013-03-11 14:09:00,62.4,15.0,29.98,NW,318,1.0,-999.0,16,-99.99,,,0.00,weatherlink.com 1.10,2013-03-11 20:09:00,
2013-03-11 14:24:00,62.9,17.0,29.96,ESE,110,1.0,-999.0,17,-99.99,,,0.00,weatherlink.com 1.10,2013-03-11 20:24:00,
2013-03-11 14:39:00,63.7,15.0,29.95,SSW,202,1.0,-999.0,15,-99.99,,,0.00,weatherlink.com 1.10,2013-03-11 20:39:00,
2013-03-11 14:54:00,64.2,14.0,29.93,NNW,335,2.0,-999.0,14,-99.99,,,0.00,weatherlink.com 1.10,2013-03-11 20:54:00,
2013-03-11 15:09:00,64.8,14.0,29.93,South,191,7.0,-999.0,14,-99.99,,,0.00,weatherlink.com 1.10,2013-03-11 21:09:00,
2013-03-11 15:24:00,65.3,13.0,29.93,NW,323,1.0,-999.0,13,-99.99,,,0.00,weatherlink.com 1.10,2013-03-11 21:24:00,
2013-03-11 15:39:00,65.8,13.0,29.92,SW,227,1.0,-999.0,13,-99.99,,,0.00,weatherlink.com 1.10,2013-03-11 21:39:00,
2013-03-11 15:54:00,66.4,12.0,29.91,NW,318,3.0,-999.0,12,-99.99,,,0.00,weatherlink.com 1.10,2013-03-11 21:54:00,
2013-03-11 16:09:00,66.6,12.0,29.91,West,260,1.0,-999.0,12,-99.99,,,0.00,weatherlink.com 1.10,2013-03-11 22:09:00,
2013-03-11 16:24:00,66.3,10.0,29.92,SW,216,2.0,-999.0,11,-99.99,,,0.00,weatherlink.com 1.10,2013-03-11 22:24:00,
2013-03-11 16:39:00,66.4,12.0,29.91,West,281,2.0,-999.0,12,-99.99,,,0.00,weatherlink.com 1.10,2013-03-11 22:39:00,
2013-03-11 16:54:00,66.3,8.0,29.90,NNW,343,4.0,-999.0,10,-99.99,,,0.00,weatherlink.com 1.10,2013-03-11 22:54:00,
2013-03-11 17:09:00,66.1,5.0,29.90,WNW,292,4.0,-999.0,9,-99.99,,,0.00,weatherlink.com 1.10,2013-03-11 23:09:00,
2013-03-11 17:24:00,66.3,6.0,29.90,NNW,332,3.0,-999.0,9,-99.99,,,0.00,weatherlink.com 1.10,2013-03-11 23:24:00,
2013-03-11 17:39:00,65.3,7.0,29.89,NW,326,2.0,-999.0,10,-99.99,,,0.00,weatherlink.com 1.10,2013-03-11 23:39:00,
2013-03-11 17:54:00,64.7,9.0,29.90,NW,308,1.0,-999.0,11,-99.99,,,0.00,weatherlink.com 1.10,2013-03-11 23:54:00,
2013-03-11 18:09:00,63.2,6.0,29.90,NW,323,0.0,-999.0,10,-99.99,,,0.00,weatherlink.com 1.10,2013-03-12 00:09:00,
2013-03-11 18:24:00,62.3,7.0,29.91,North,0,2.0,-999.0,11,-99.99,,,0.00,weatherlink.com 1.10,2013-03-12 00:24:00,
2013-03-11 18:39:00,61.5,6.0,29.93,West,275,1.0,-999.0,11,-99.99,,,0.00,weatherlink.com 1.10,2013-03-12 00:39:00,
2013-03-11 18:54:00,60.5,7.0,29.93,NW,313,1.0,-999.0,12,-99.99,,,0.00,weatherlink.com 1.10,2013-03-12 00:54:00,
2013-03-11 19:09:00,59.6,8.0,29.95,North,350,1.0,-999.0,13,-99.99,,,0.00,weatherlink.com 1.10,2013-03-12 01:09:00,
2013-03-11 19:24:00,58.7,9.0,29.95,NNW,328,1.0,-999.0,14,-99.99,,,0.00,weatherlink.com 1.10,2013-03-12 01:24:00,
2013-03-11 19:39:00,57.6,8.0,29.95,NNW,328,2.0,-999.0,14,-99.99,,,0.00,weatherlink.com 1.10,2013-03-12 01:39:00,
2013-03-11 19:54:00,57.0,10.0,29.95,NW,318,6.0,-999.0,15,-99.99,,,0.00,weatherlink.com 1.10,2013-03-12 01:54:00,
2013-03-11 20:24:00,56.3,9.0,29.94,NW,318,2.0,-999.0,15,-99.99,,,0.00,weatherlink.com 1.10,2013-03-12 02:24:00,
2013-03-11 20:39:00,56.5,11.0,29.94,NW,322,1.0,-999.0,16,-99.99,,,0.00,weatherlink.com 1.10,2013-03-12 02:39:00,
2013-03-11 20:54:00,55.1,11.0,29.96,North,359,3.0,-999.0,17,-99.99,,,0.00,weatherlink.com 1.10,2013-03-12 02:54:00,
2013-03-11 21:09:00,54.1,11.0,29.97,North,357,0.0,-999.0,18,-99.99,,,0.00,weatherlink.com 1.10,2013-03-12 03:09:00,
2013-03-11 21:24:00,52.3,12.0,29.90,North,357,0.0,-999.0,20,-99.99,,,0.00,weatherlink.com 1.10,2013-03-12 03:24:00,
2013-03-11 21:39:00,51.3,13.0,29.92,North,0,0.0,-999.0,22,-99.99,,,0.00,weatherlink.com 1.10,2013-03-12 03:39:00,
2013-03-11 21:54:00,50.8,15.0,29.94,North,0,0.0,-999.0,24,-99.99,,,0.00,weatherlink.com 1.10,2013-03-12 03:54:00,
2013-03-11 22:09:00,50.8,17.0,29.94,North,353,3.0,-999.0,26,-99.99,,,0.00,weatherlink.com 1.10,2013-03-12 04:09:00,
2013-03-11 22:24:00,51.1,17.0,29.93,NW,318,3.0,-999.0,26,-99.99,,,0.00,weatherlink.com 1.10,2013-03-12 04:24:00,
2013-03-11 22:39:00,51.3,17.0,29.93,NNW,344,0.0,-999.0,26,-99.99,,,0.00,weatherlink.com 1.10,2013-03-12 04:39:00,
2013-03-11 22:54:00,50.8,17.0,29.93,North,349,4.0,-999.0,26,-99.99,,,0.00,weatherlink.com 1.10,2013-03-12 04:54:00,
2013-03-11 23:09:00,49.9,17.0,29.94,NNW,329,1.0,-999.0,27,-99.99,,,0.00,weatherlink.com 1.10,2013-03-12 05:09:00,
2013-03-11 23:24:00,49.1,16.0,29.93,WNW,288,0.0,-999.0,27,-99.99,,,0.00,weatherlink.com 1.10,2013-03-12 05:24:00,
2013-03-11 23:39:00,47.9,16.0,29.94,NW,305,0.0,-999.0,28,-99.99,,,0.00,weatherlink.com 1.10,2013-03-12 05:39:00,
2013-03-11 23:54:00,47.4,16.0,29.94,NNW,330,2.0,-999.0,29,-99.99,,,0.00,weatherlink.com 1.10,2013-03-12 05:54:00,